Flag for India Weather past 2 weeks in Vasai-Virar, Maharashtra, India

88 °F


Feels Like: 89 °F
Forecast: 78 / 94 °F
Wind: 8 mph from Southeast

Location: Mumbai / Santacruz

Current Time: Nov 30, 2015 at 10:43:00 AM

Latest Report: Nov 30, 2015 at 10:00 AM

Visibility: 2 mi

Pressure: 30.01 "Hg

Humidity: 46%

Dew point: 64 °F

Location of Vasai-VirarLocation

Historic Weather in Vasai-Virar — Graph


Vasai-Virar temperature yesterday

Maximum temperature yesterday: 93 °F (at 1:30 PM)
Minimum temperature yesterday: 77 °F (at 5:00 AM)
Average temperature yesterday: 84 °F

Past Weeks' High & Low Weather Summary

High99 °F (Nov 20, 3:00 PM)84% (Nov 22, 10:00 PM)30.01 "Hg (Nov 22, 10:00 PM)
Low75 °F (Nov 18, 6:30 AM)19% (Nov 19, 3:30 PM)29.74 "Hg (Nov 15, 3:30 PM)
Average85 °F52%29.85 "Hg
* Reported Nov 15 8:30 AM — Nov 30 9:00 AM, Vasai-Virar, Weather by CustomWeather, © 2015

Note: Actual official high and low records may vary slightly from our data, if they occured in-between our weather recording intervals... More about our weather records


Vasai-Virar weather history for previous 24 hours

Time TempWeatherWind HumidityBarometerVisibility
9:00 AM
Mon, Nov 30
84 °FHaze.5 mph55%30.01 "Hg1 mi
8:30 AM82 °FHaze.No wind58%30.01 "Hg1 mi
8:00 AM79 °FScattered clouds.5 mph70%29.98 "Hg1 mi
7:30 AM79 °FScattered clouds.No wind65%29.98 "Hg2 mi
6:30 AM79 °FPassing clouds.5 mph65%29.95 "Hg1 mi
6:00 AM81 °FPassing clouds.3 mph62%29.95 "Hg1 mi
5:30 AM81 °FPassing clouds.3 mph62%29.92 "Hg1 mi
4:30 AM81 °FPassing clouds.No wind66%29.92 "Hg1 mi
4:00 AM79 °FPassing clouds.No wind70%29.92 "Hg1 mi
3:30 AM79 °FPassing clouds.5 mph70%29.92 "Hg1 mi
3:00 AM81 °FPassing clouds.No wind66%29.92 "Hg1 mi
2:30 AM82 °FPassing clouds.No wind58%29.92 "Hg1 mi
2:00 AM81 °FPassing clouds.No wind66%29.92 "Hg2 mi
1:30 AM81 °FPassing clouds.No wind62%29.92 "Hg2 mi
1:00 AM81 °FPassing clouds.No wind66%29.92 "Hg2 mi
12:30 AM81 °FPassing clouds.No wind66%29.92 "Hg2 mi
12:00 AM81 °FPassing clouds.No wind66%29.95 "Hg2 mi
11:30 PM
Sun, Nov 29
82 °FPassing clouds.No wind58%29.95 "Hg2 mi
11:00 PM82 °FPassing clouds.No wind55%29.95 "Hg2 mi
10:30 PM84 °FPassing clouds.No wind51%29.95 "Hg2 mi
10:00 PM84 °FPassing clouds.No wind55%29.95 "Hg2 mi
9:30 PM84 °FClear.3 mph55%29.92 "Hg2 mi
9:00 PM84 °FClear.3 mph58%29.92 "Hg2 mi
8:30 PM84 °FClear.6 mph58%29.92 "Hg2 mi
8:00 PM86 °FClear.6 mph55%29.89 "Hg2 mi
7:30 PM84 °FClear.6 mph58%29.89 "Hg2 mi
7:00 PM86 °FClear.8 mph55%29.89 "Hg2 mi
6:30 PM86 °FClear.7 mph55%29.89 "Hg2 mi
6:00 PM86 °FClear.8 mph55%29.86 "Hg2 mi
5:30 PM88 °FClear.7 mph52%29.86 "Hg2 mi
5:00 PM88 °FClear.7 mph49%29.86 "Hg2 mi
4:30 PM90 °FClear.7 mph46%29.83 "Hg2 mi
4:00 PM90 °FClear.8 mph46%29.83 "Hg2 mi
3:00 PM91 °FClear.12 mph44%29.86 "Hg2 mi
2:30 PM91 °FClear.10 mph41%29.86 "Hg2 mi
2:00 PM91 °FPassing clouds.8 mph38%29.86 "Hg2 mi
1:30 PM93 °FPassing clouds.8 mph39%29.89 "Hg2 mi
12:00 PM90 °FPassing clouds.7 mph41%29.95 "Hg2 mi
11:30 AM88 °FPassing clouds.6 mph43%29.95 "Hg2 mi
10:30 AM86 °FPassing clouds.7 mph40%29.98 "Hg2 mi
10:00 AM84 °FPassing clouds.5 mph43%29.98 "Hg2 mi
Weather by CustomWeather, © 2015

See weather overviewHow to use our weather pages